Location: Shenandoah County Park
(38.9356°N, 78.4524°W)
Time: 06:14:50
(UTC-04:00)

Vanguard 1 Rocket - Pass Details

Date: 15 February 2023
Orbit: 652 x 4223 km, 34.3° (Epoch: 26 March)

Event Time Altitude Azimuth Distance (km) Brightness Sun altitude
Rises 17:36:37 0° 270° (W) 6,174 13.4 1.9°
Reaches altitude 10° 17:42:28 10° 253° (WSW) 5,786 14.0 0.8°
Maximum altitude 17:52:56 18° 219° (SW) 6,011 12.5 -1.2°
Drops below altitude 10° 18:06:04 10° 186° (S) 7,300 12.3 -3.7°
Sets 18:15:41 0° 170° (S) 8,454 12.4 -5.5°
